Latest Weather Observations for Tasman Island

IDT60901

Issued at 5:35 am EST Wednesday 3 September 2014 (issued every 10 minutes, with the page automatically refreshed every 10 minutes)

About weather observations | Map of Hobart area stations | Latest observations for Hobart area | Other Formats
Station Details ID: 094155 Name: TASMAN ISLAND Lat: -43.24 Lon: 148.00 Height: 240.0 m
Data from the previous 72 hours. | See also: Recent months at Tasman Island
Date/Time
EST
Tmp

°C
App
Tmp
°C
Dew
Point
°C
Rel
Hum
%
Delta-T

°C
Wind Press
QNH
hPa
Press
MSL
hPa
Rain
since
9 am
mm
Dir
 
Spd
km/h
Gust
km/h
Spd
kts
Gust
kts
03/05:30am 7.5 3.9 4.8 83 1.2 WSW 13 32 7 17 1018.6 1018.9 2.0
03/05:00am 7.5 3.1 4.8 83 1.2 WSW 17 37 9 20 1018.5 1018.8 2.0
03/04:30am 7.6 4.3 4.7 82 1.3 W 11 37 6 20 1018.4 1018.7 2.0
03/04:00am 7.4 4.5 4.7 83 1.2 WSW 9 32 5 17 1018.3 1018.6 2.0
03/03:30am 7.2 4.2 4.3 82 1.3 W 9 37 5 20 1018.6 1018.9 2.0
03/03:00am 7.1 4.4 3.9 80 1.4 WNW 7 30 4 16 1018.6 1018.9 2.0
03/02:30am 7.2 4.2 4.2 81 1.3 SSW 9 30 5 16 1018.7 1019.0 2.0
03/02:00am 7.2 3.9 4.3 82 1.3 WSW 11 28 6 15 1019.0 1019.2 2.0
03/01:30am 7.3 4.4 4.6 83 1.2 E 9 32 5 17 1019.3 1019.5 2.0
03/01:00am 7.2 4.3 4.9 85 1.0 NW 9 30 5 16 1019.4 1019.7 2.0
03/12:30am 6.9 4.0 4.6 85 1.0 NNW 9 24 5 13 1019.4 1019.7 2.0
03/12:00am 7.1 3.4 4.6 84 1.1 WSW 13 35 7 19 1019.5 1019.8 2.0
 
Date/Time
EST
Tmp

°C
App
Tmp
°C
Dew
Point
°C
Rel
Hum
%
Delta-T

°C
Wind Press
QNH
hPa
Press
MSL
hPa
Rain
since
9 am
mm
Dir
 
Spd
km/h
Gust
km/h
Spd
kts
Gust
kts
02/11:30pm 7.0 4.0 4.3 83 1.2 NE 9 30 5 16 1019.6 1019.9 2.0
02/11:00pm 7.4 4.4 4.0 79 1.5 WSW 9 37 5 20 1019.6 1019.9 2.0
02/10:30pm 7.0 4.3 3.8 80 1.4 NNW 7 26 4 14 1019.7 1020.0 2.0
02/10:01pm 7.5 0.7 3.2 74 1.8 SW 28 48 15 26 1019.5 1019.8 2.0
02/10:00pm 7.5 1.1 3.2 74 1.8 SSW 26 48 14 26 1019.5 1019.8 2.0
02/09:30pm 7.3 2.2 3.2 75 1.8 SW 19 44 10 24 1019.6 1019.9 2.0
02/09:01pm 7.6 0.8 3.1 73 1.9 SW 28 57 15 31 1019.7 1020.0 2.0
02/09:00pm 7.6 0.8 2.9 72 2.0 SW 28 44 15 24 1019.7 1020.0 2.0
02/08:30pm 7.5 0.0 3.4 75 1.8 SSW 32 54 17 29 1019.6 1019.9 2.0
02/08:23pm 7.2 -0.6 2.7 73 1.9 SW 33 54 18 29 1019.5 1019.8 2.0
02/08:00pm 6.5 0.2 3.5 81 1.3 SSW 26 41 14 22 1019.5 1019.8 2.0
02/07:30pm 7.0 0.1 2.5 73 1.9 SW 28 56 15 30 1019.3 1019.5 2.0
02/07:13pm 7.4 0.5 2.7 72 2.0 SSW 28 46 15 25 1019.1 1019.3 2.0
02/07:00pm 7.4 -0.5 2.3 70 2.1 SW 33 46 18 25 1019.1 1019.3 2.0
02/06:30pm 7.0 -0.5 3.4 78 1.5 SSW 32 52 17 28 1018.9 1019.1 2.0
02/06:00pm 7.2 0.3 2.3 71 2.0 SSW 28 52 15 28 1018.4 1018.7 2.0
02/05:30pm 7.3 -0.3 2.6 72 2.0 SW 32 56 17 30 1018.1 1018.4 2.0
02/05:00pm 7.2 -0.7 2.1 70 2.1 SSW 33 54 18 29 1017.7 1018.0 2.0
02/04:30pm 7.4 -2.3 2.9 73 1.9 SW 43 65 23 35 1017.2 1017.5 2.0
02/04:00pm 6.8 -0.7 4.3 84 1.1 SW 33 63 18 34 1017.0 1017.3 1.8
02/03:35pm 6.8 0.4 5.3 90 0.7 SW 28 56 15 30 1017.1 1017.4 1.8
02/03:30pm 6.7 0.7 5.5 92 0.5 SW 26 54 14 29 1017.1 1017.4 1.8
02/03:00pm 6.8 -0.3 5.7 93 0.5 SSW 32 56 17 30 1017.0 1017.3 1.8
02/02:31pm 7.0 0.0 5.8 92 0.5 SW 32 63 17 34 1016.7 1017.0 1.0
02/02:30pm 7.0 0.3 5.6 91 0.6 SW 30 44 16 24 1016.7 1017.0 1.0
02/02:14pm 6.8 0.1 3.8 81 1.3 SSW 28 54 15 29 1016.6 1016.9 0.6
02/02:00pm 7.9 1.8 4.8 81 1.4 SW 26 43 14 23 1016.6 1016.9 0.6
02/01:35pm 7.4 0.9 4.5 82 1.3 SSW 28 57 15 31 1016.6 1016.9 0.6
02/01:30pm 7.8 2.1 5.1 83 1.2 SSW 24 48 13 26 1016.5 1016.8 0.6
02/01:00pm 7.1 0.2 4.8 85 1.0 SSW 30 63 16 34 1016.4 1016.7 0.4
02/12:30pm 7.8 0.5 4.6 80 1.4 SW 32 65 17 35 1016.2 1016.5 0.4
02/12:00pm 5.9 -4.2 3.7 86 0.9 SW 46 70 25 38 1016.5 1016.8 0.2
02/11:50am 8.1 0.5 3.9 75 1.8 SW 33 67 18 36 1016.3 1016.6 0.0
02/11:32am 8.3 1.4 2.8 68 2.4 SSW 28 48 15 26 1016.3 1016.6 0.0
02/11:30am 8.5 1.8 1.6 62 2.9 SW 26 48 14 26 1016.4 1016.7 0.0
02/11:00am 8.8 1.9 2.6 65 2.7 SW 28 63 15 34 1016.4 1016.7 0.0
02/10:57am 8.3 1.3 2.1 65 2.6 SW 28 63 15 34 1016.4 1016.7 0.0
02/10:30am 8.2 2.2 3.1 70 2.2 SW 24 50 13 27 1016.3 1016.6 0.0
02/10:01am 9.1 2.0 1.5 59 3.2 SW 28 46 15 25 1016.3 1016.6 0.0
02/10:00am 9.1 2.3 1.0 57 3.3 SW 26 46 14 25 1016.3 1016.6 0.0
02/09:38am 8.5 0.7 1.6 62 2.9 SSW 32 52 17 28 1016.0 1016.3 0.0
02/09:30am 8.7 0.3 1.4 60 3.0 SW 35 50 19 27 1015.9 1016.2 0.0
02/09:00am 8.1 0.6 1.0 61 2.9 SW 30 50 16 27 1015.8 1016.0 7.2
02/08:30am 8.1 -0.1 0.6 59 3.0 SSW 33 56 18 30 1015.8 1016.0 7.2
02/08:24am 8.2 0.7 0.9 60 3.0 SSW 30 50 16 27 1015.8 1016.0 7.2
02/08:00am 8.2 1.5 1.6 63 2.7 SSW 26 41 14 22 1015.8 1016.0 7.2
02/07:30am 7.4 0.2 0.6 62 2.7 SSW 28 50 15 27 1015.4 1015.6 7.2
02/07:19am 7.6 0.5 1.5 65 2.5 SSW 28 48 15 26 1015.3 1015.5 7.2
02/07:00am 7.3 0.9 0.7 63 2.7 SSW 24 39 13 21 1015.2 1015.4 7.2
02/06:30am 7.4 1.0 0.8 63 2.7 SSW 24 37 13 20 1014.9 1015.1 7.2
02/06:00am 7.4 1.0 0.8 63 2.7 SSW 24 39 13 21 1014.5 1014.7 7.2
02/05:30am 7.5 0.0 0.9 63 2.7 SSW 30 44 16 24 1013.8 1014.1 7.2
02/05:12am 7.4 0.2 0.6 62 2.7 SSW 28 48 15 26 1013.6 1013.9 7.2
02/05:00am 7.6 0.9 1.5 65 2.5 SSW 26 43 14 23 1013.4 1013.7 7.2
02/04:30am 7.2 0.7 0.6 63 2.7 SSW 24 39 13 21 1013.0 1013.3 7.2
02/04:00am 7.4 -0.2 0.4 61 2.8 SSW 30 44 16 24 1012.6 1012.9 7.2
02/03:33am 7.8 1.0 3.1 72 2.0 SSW 28 46 15 25 1012.4 1012.7 7.2
02/03:30am 7.8 1.8 3.3 73 1.9 SSW 24 37 13 20 1012.4 1012.7 7.2
02/03:00am 7.3 0.9 1.2 65 2.5 SSW 24 37 13 20 1012.4 1012.7 7.2
02/02:30am 7.5 1.8 2.6 71 2.1 SSW 22 37 12 20 1012.1 1012.3 7.2
02/02:00am 7.9 1.3 4.1 77 1.7 SSW 28 43 15 23 1011.9 1012.1 7.2
02/01:30am 7.6 1.9 2.7 71 2.1 S 22 33 12 18 1011.8 1012.0 7.2
02/01:00am 7.8 2.9 4.0 77 1.7 S 19 35 10 19 1011.5 1011.7 7.2
02/12:30am 7.5 1.4 3.0 73 1.9 S 24 39 13 21 1011.2 1011.4 7.2
02/12:00am 7.6 1.7 3.8 77 1.7 S 24 35 13 19 1010.9 1011.1 7.2
 
Date/Time
EST
Tmp

°C
App
Tmp
°C
Dew
Point
°C
Rel
Hum
%
Delta-T

°C
Wind Press
QNH
hPa
Press
MSL
hPa
Rain
since
9 am
mm
Dir
 
Spd
km/h
Gust
km/h
Spd
kts
Gust
kts
01/11:30pm 7.4 2.2 5.7 89 0.8 SSW 22 33 12 18 1010.7 1010.9 7.2
01/11:00pm 7.2 1.2 5.2 87 0.9 SSW 26 37 14 20 1010.3 1010.5 7.2
01/10:30pm 6.6 0.4 4.1 84 1.1 S 26 46 14 25 1010.1 1010.3 7.2
01/10:00pm 7.7 2.3 4.7 81 1.3 S 22 33 12 18 1009.7 1010.0 6.8
01/09:30pm 7.9 2.9 4.8 81 1.4 S 20 37 11 20 1009.3 1009.6 6.8
01/09:00pm 7.6 1.0 4.4 80 1.4 S 28 44 15 24 1008.7 1008.9 6.8
01/08:41pm 7.8 1.2 4.2 78 1.6 S 28 46 15 25 1008.3 1008.5 6.8
01/08:30pm 7.6 1.1 4.7 82 1.3 S 28 43 15 23 1008.2 1008.4 6.8
01/08:16pm 7.2 1.0 6.0 92 0.5 S 28 56 15 30 1007.9 1008.1 6.8
01/08:00pm 7.1 1.3 6.4 95 0.3 S 26 43 14 23 1007.6 1007.8 6.8
01/07:30pm 7.5 0.8 7.4 99 0.0 SSW 32 50 17 27 1007.2 1007.4 6.8
01/07:00pm 7.3 1.0 7.2 99 0.0 SSW 30 44 16 24 1006.6 1006.8 6.6
01/06:30pm 7.5 1.6 7.4 99 0.0 SSW 28 46 15 25 1006.0 1006.2 6.4
01/06:00pm 7.3 1.3 7.2 99 0.0 S 28 48 15 26 1005.5 1005.8 6.2
01/05:30pm 7.4 1.1 7.4 100 0.0 S 30 54 16 29 1004.5 1004.7 6.2
01/05:00pm 7.6 1.3 7.6 100 0.0 S 30 48 16 26 1003.8 1004.0 5.6
01/04:30pm 7.5 0.8 7.5 100 0.0 S 32 52 17 28 1003.1 1003.3 5.2
01/04:17pm 7.8 1.2 7.8 100 0.0 S 32 50 17 27 1002.9 1003.1 5.0
01/04:00pm 8.1 1.0 8.1 100 0.0 SSW 35 54 19 29 1002.6 1002.8 4.8
01/03:30pm 8.5 0.8 8.5 100 0.0 SSW 39 63 21 34 1002.0 1002.2 4.0
01/03:00pm 8.7 2.1 8.7 100 0.0 SSW 33 54 18 29 1001.9 1002.1 3.8
01/02:30pm 8.8 2.8 8.8 100 0.0 SSW 30 54 16 29 1001.7 1001.8 3.4
01/02:00pm 9.0 2.5 8.9 99 0.0 SSW 33 70 18 38 1000.5 1000.7 2.4
01/01:50pm 9.6 3.4 9.5 99 0.1 SSW 32 50 17 27 1000.6 1000.8 2.2
01/01:30pm 10.6 8.7 9.2 91 0.7 SSW 9 30 5 16 1000.7 1000.9 1.6
01/01:00pm 13.7 7.5 7.7 67 3.0 NNW 30 54 16 29 1000.5 1000.7 0.0
01/12:30pm 13.9 6.6 7.4 65 3.2 N 35 54 19 29 1000.8 1001.0 0.0
01/12:00pm 13.9 7.6 7.2 64 3.3 N 30 59 16 32 1001.2 1001.4 0.0
01/11:30am 13.1 6.9 8.0 71 2.6 N 30 50 16 27 1001.8 1001.9 0.0
01/11:00am 13.3 7.1 7.7 69 2.8 N 30 54 16 29 1002.1 1002.3 0.0
01/10:36am 13.2 7.3 7.6 69 2.8 N 28 48 15 26 1002.4 1002.6 0.0
01/10:30am 13.2 8.0 7.4 68 2.9 N 24 46 13 25 1002.4 1002.6 0.0
01/10:15am 12.9 7.1 7.8 71 2.5 NNW 28 48 15 26 1002.6 1002.8 0.0
01/10:00am 12.9 8.8 7.8 71 2.5 N 19 35 10 19 1002.8 1003.0 0.0
01/09:30am 12.9 5.7 7.8 71 2.5 N 35 56 19 30 1003.4 1003.7 0.0
01/09:20am 13.0 6.3 7.5 69 2.7 N 32 52 17 28 1003.5 1003.8 0.0
01/09:00am 12.8 5.7 7.9 72 2.5 N 35 50 19 27 1003.8 1004.1 0.0
01/08:30am 12.5 5.0 8.0 74 2.2 N 37 52 20 28 1004.1 1004.4 0.0
01/08:05am 12.4 6.2 7.7 73 2.3 N 30 50 16 27 1004.1 1004.4 0.0
01/08:00am 12.5 6.3 7.8 73 2.3 N 30 43 16 23 1004.2 1004.5 0.0
01/07:47am 12.6 5.8 7.5 71 2.5 N 33 52 18 28 1004.2 1004.5 0.0
01/07:30am 12.6 5.8 7.7 72 2.4 N 33 46 18 25 1004.3 1004.6 0.0
01/07:14am 12.6 6.3 7.5 71 2.5 N 30 48 16 26 1004.5 1004.8 0.0
01/07:00am 12.7 5.5 7.6 71 2.5 N 35 50 19 27 1004.5 1004.8 0.0
01/06:30am 12.5 4.9 7.4 71 2.5 N 37 48 20 26 1004.5 1004.8 0.0
01/06:00am 12.6 4.2 7.3 70 2.6 N 41 54 22 29 1004.5 1004.8 0.0
01/05:30am 12.6 5.0 7.5 71 2.5 N 37 50 20 27 1004.9 1005.2 0.0
01/05:21am 12.8 5.1 7.3 69 2.7 N 37 57 20 31 1004.9 1005.2 0.0
01/05:00am 12.8 3.9 7.0 68 2.8 N 43 54 23 29 1004.8 1005.1 0.0
01/04:30am 12.9 4.4 7.1 68 2.8 N 41 56 22 30 1004.9 1005.2 0.0
01/04:00am 12.8 6.1 7.3 69 2.7 N 32 52 17 28 1005.3 1005.6 0.0
01/03:46am 13.1 5.4 7.1 67 2.9 N 37 57 20 31 1005.4 1005.7 0.0
01/03:30am 12.9 3.8 6.9 67 2.9 N 44 57 24 31 1005.4 1005.7 0.0
01/03:00am 13.3 3.4 6.6 64 3.3 N 48 78 26 42 1005.2 1005.5 0.0
01/02:30am 13.7 5.1 6.3 61 3.6 N 41 65 22 35 1005.8 1006.0 0.0
01/02:00am 14.4 4.7 6.0 57 4.1 NNW 46 69 25 37 1006.5 1006.7 0.0
01/01:30am 14.2 5.1 6.1 58 3.9 NNW 43 72 23 39 1006.9 1007.2 0.0
01/01:00am 14.1 5.4 6.2 59 3.8 N 41 69 22 37 1007.2 1007.5 0.0
01/12:43am 13.9 5.3 6.3 60 3.7 N 41 65 22 35 1007.5 1007.8 0.0
01/12:30am 12.8 4.9 7.7 71 2.5 N 39 52 21 28 1007.5 1007.8 0.0
01/12:25am 12.8 4.5 7.7 71 2.5 N 41 59 22 32 1007.5 1007.8 0.0
01/12:00am 13.2 3.1 7.2 67 3.0 N 50 59 27 32 1007.3 1007.6 0.0
 
Date/Time
EST
Tmp

°C
App
Tmp
°C
Dew
Point
°C
Rel
Hum
%
Delta-T

°C
Wind Press
QNH
hPa
Press
MSL
hPa
Rain
since
9 am
mm
Dir
 
Spd
km/h
Gust
km/h
Spd
kts
Gust
kts
31/11:38pm 13.6 4.1 6.5 62 3.5 N 46 67 25 36 1007.6 1007.9 0.0
31/11:30pm 13.6 3.7 6.5 62 3.5 N 48 61 26 33 1007.8 1008.1 0.0
31/11:00pm 13.6 6.1 6.2 61 3.6 N 35 46 19 25 1008.3 1008.6 0.0
31/10:30pm 15.0 6.5 5.0 51 4.8 N 39 56 21 30 1008.4 1008.7 0.0
31/10:00pm 14.9 6.0 5.1 52 4.7 N 41 56 22 30 1008.7 1009.0 0.0
31/09:30pm 14.7 5.4 5.8 55 4.3 N 44 65 24 35 1009.0 1009.3 0.0
31/09:21pm 14.6 5.3 5.9 56 4.2 N 44 65 24 35 1009.0 1009.3 0.0
31/09:00pm 14.1 5.8 6.2 59 3.8 N 39 52 21 28 1009.1 1009.4 0.0
31/08:30pm 14.0 6.1 6.4 60 3.7 N 37 52 20 28 1009.5 1009.8 0.0
31/08:00pm 13.8 7.1 7.3 65 3.2 N 32 46 17 25 1009.8 1010.1 0.0
31/07:30pm 13.9 7.2 7.4 65 3.2 N 32 44 17 24 1009.9 1010.2 0.0
31/07:00pm 14.2 8.3 7.7 65 3.3 N 28 41 15 22 1009.9 1010.2 0.0
31/06:30pm 14.2 8.5 8.2 67 3.0 N 28 39 15 21 1010.3 1010.6 0.0
31/06:00pm 13.8 7.7 8.4 70 2.7 N 30 39 16 21 1010.3 1010.6 0.0
31/05:30pm 14.2 8.5 8.4 68 2.9 N 28 37 15 20 1010.4 1010.7 0.0
31/05:00pm 14.2 8.5 8.4 68 3.0 N 28 39 15 21 1010.5 1010.8 0.0
31/04:30pm 14.2 10.1 8.6 69 2.9 N 20 32 11 17 1010.9 1011.2 0.0
31/04:00pm 14.6 10.7 8.8 68 3.0 N 19 28 10 15 1011.1 1011.4 0.0
31/03:30pm 14.1 10.6 8.9 71 2.7 N 17 22 9 12 1011.3 1011.6 0.0
31/03:00pm 13.8 10.3 8.8 72 2.6 N 17 30 9 16 1011.8 1012.1 0.0
31/02:30pm 13.9 10.3 8.5 70 2.7 N 17 28 9 15 1012.0 1012.3 0.0
31/02:00pm 14.3 9.8 8.5 68 3.0 N 22 30 12 16 1012.2 1012.5 0.0
31/01:30pm 14.6 10.6 8.1 65 3.3 N 19 24 10 13 1012.4 1012.7 0.0
31/01:00pm 13.8 9.9 7.3 65 3.2 N 17 24 9 13 1012.7 1013.0 0.0
31/12:30pm 14.9 12.1 8.6 66 3.2 N 13 22 7 12 1013.1 1013.4 0.0
31/12:00pm 15.3 11.9 7.6 60 3.9 N 15 26 8 14 1013.7 1014.1 0.0
31/11:30am 15.0 12.2 7.1 59 3.9 N 11 19 6 10 1014.0 1014.4 0.0
31/11:00am 13.6 9.1 6.0 60 3.7 N 19 22 10 12 1014.2 1014.6 0.0
31/10:30am 14.6 10.1 5.9 56 4.2 N 19 32 10 17 1014.8 1015.1 0.0
31/10:00am 13.2 9.0 5.9 61 3.5 NNE 17 26 9 14 1015.2 1015.5 0.0
31/09:30am 12.3 7.5 5.5 63 3.2 N 20 32 11 17 1015.4 1015.7 0.0
31/09:00am 11.9 7.1 4.9 62 3.2 N 19 28 10 15 1015.6 1015.9 0.2
31/08:30am 11.1 5.8 5.0 66 2.8 N 22 30 12 16 1015.9 1016.2 0.2
31/08:00am 10.3 6.9 4.2 66 2.7 N 11 19 6 10 1016.2 1016.5 0.2
31/07:30am 9.8 4.0 4.2 68 2.5 N 24 39 13 21 1015.9 1016.2 0.2
31/07:00am 9.9 5.0 4.3 68 2.5 N 19 30 10 16 1015.8 1016.1 0.2
31/06:30am 9.8 4.3 3.8 66 2.7 N 22 37 12 20 1015.8 1016.1 0.2
31/06:00am 9.6 5.5 4.4 70 2.3 N 15 28 8 15 1016.1 1016.4 0.2

Latest Capital City Observations: Canberra | Sydney | Melbourne | Brisbane | Adelaide | Perth | Hobart | Darwin

Other Formats:

Comma delimited format used in spreadsheet applications
http://www.bom.gov.au/fwo/IDT60901/IDT60901.95986.axf

JavaScript Object Notation format (JSON) in row-major order
http://www.bom.gov.au/fwo/IDT60901/IDT60901.95986.json